contact: severine.martini@mio.osupytheas.fr, dominique.lefevre@mio.osupytheas.fr
Project:EMSO Ligure-ouest http://www.emso-fr.org/EMSO-France
Sensor Microcat Sea-Bird SBE37 SMP,  Serial 57510 
DOI : "https://doi.org/10.17882/97948" 
Title:EMSO Ligure Ouest : Data Bathybot capteur Microcat - deploiement 2023-04-28
Datetime,Profondeur,Latitude,Longitude,Temperature,Conductivite,Pression,Salinite
time,m,degree_north,degree_east,degree_C,S/m,db,PSU 
2023-09-24T00:00:49,2420,42.8014,5.9826,13.2973,4.59886,2453.590,38.4855
2023-09-24T00:03:49,2420,42.8014,5.9826,13.2968,4.59892,2453.612,38.4864
2023-09-24T00:06:49,2420,42.8014,5.9826,13.2968,4.59886,2453.649,38.4859
2023-09-24T00:09:49,2420,42.8014,5.9826,13.2970,4.59883,2453.649,38.4853
2023-09-24T00:12:49,2420,42.8014,5.9826,13.2971,4.59893,2453.649,38.4862
2023-09-24T00:15:49,2420,42.8014,5.9826,13.2967,4.59894,2453.687,38.4868
2023-09-24T00:18:49,2420,42.8014,5.9826,13.2968,4.59890,2453.649,38.4862
2023-09-24T00:21:49,2420,42.8014,5.9826,13.2970,4.59888,2453.649,38.4858
2023-09-24T00:24:49,2420,42.8014,5.9826,13.2970,4.59895,2453.672,38.4866
2023-09-24T00:27:49,2420,42.8014,5.9826,13.2968,4.59909,2453.664,38.4880
2023-09-24T00:30:49,2420,42.8014,5.9826,13.2968,4.59895,2453.627,38.4868
2023-09-24T00:33:49,2420,42.8014,5.9826,13.2970,4.59897,2453.649,38.4867
2023-09-24T00:36:49,2420,42.8014,5.9826,13.2968,4.59900,2453.627,38.4871
2023-09-24T00:39:49,2420,42.8014,5.9826,13.2969,4.59908,2453.664,38.4878
2023-09-24T00:42:49,2420,42.8014,5.9826,13.2968,4.59900,2453.627,38.4871
2023-09-24T00:45:49,2420,42.8014,5.9826,13.2970,4.59897,2453.649,38.4867
2023-09-24T00:48:49,2420,42.8014,5.9826,13.2969,4.59893,2453.649,38.4864
2023-09-24T00:51:49,2420,42.8014,5.9826,13.2970,4.59889,2453.604,38.4860
2023-09-24T00:54:49,2420,42.8014,5.9826,13.2973,4.59906,2453.627,38.4872
2023-09-24T00:57:49,2420,42.8014,5.9826,13.2972,4.59891,2453.627,38.4860
2023-09-24T01:00:49,2420,42.8014,5.9826,13.2970,4.59896,2453.627,38.4867
2023-09-24T01:03:49,2420,42.8014,5.9826,13.2972,4.59892,2453.627,38.4861
2023-09-24T01:06:49,2420,42.8014,5.9826,13.2971,4.59908,2453.627,38.4877
2023-09-24T01:09:49,2420,42.8014,5.9826,13.2967,4.59892,2453.649,38.4866
2023-09-24T01:12:49,2420,42.8014,5.9826,13.2972,4.59889,2453.649,38.4858
2023-09-24T01:15:49,2420,42.8014,5.9826,13.2973,4.59892,2453.649,38.4859
2023-09-24T01:18:49,2420,42.8014,5.9826,13.2975,4.59900,2453.627,38.4865
2023-09-24T01:21:49,2420,42.8014,5.9826,13.2970,4.59890,2453.627,38.4860
2023-09-24T01:24:49,2420,42.8014,5.9826,13.2971,4.59900,2453.627,38.4869
2023-09-24T01:27:50,2420,42.8014,5.9826,13.2971,4.59888,2453.649,38.4858
2023-09-24T01:30:50,2420,42.8014,5.9826,13.2971,4.59889,2453.604,38.4859
2023-09-24T01:33:49,2420,42.8014,5.9826,13.2972,4.59887,2453.627,38.4856
2023-09-24T01:36:49,2420,42.8014,5.9826,13.2974,4.59888,2453.627,38.4855
2023-09-24T01:39:49,2420,42.8014,5.9826,13.2973,4.59889,2453.649,38.4857
2023-09-24T01:42:49,2420,42.8014,5.9826,13.2971,4.59892,2453.649,38.4861
2023-09-24T01:45:49,2420,42.8014,5.9826,13.2970,4.59890,2453.627,38.4861
2023-09-24T01:48:49,2420,42.8014,5.9826,13.2968,4.59891,2453.627,38.4864
2023-09-24T01:51:49,2420,42.8014,5.9826,13.2967,4.59895,2453.627,38.4869
2023-09-24T01:54:49,2420,42.8014,5.9826,13.2970,4.59891,2453.627,38.4862
2023-09-24T01:57:49,2420,42.8014,5.9826,13.2968,4.59887,2453.649,38.4860
2023-09-24T02:00:49,2420,42.8014,5.9826,13.2973,4.59886,2453.627,38.4855
2023-09-24T02:03:49,2420,42.8014,5.9826,13.2973,4.59889,2453.649,38.4857
2023-09-24T02:06:49,2420,42.8014,5.9826,13.2970,4.59891,2453.635,38.4862
2023-09-24T02:09:49,2420,42.8014,5.9826,13.2969,4.59891,2453.649,38.4862
2023-09-24T02:12:49,2420,42.8014,5.9826,13.2970,4.59893,2453.627,38.4863
2023-09-24T02:15:49,2420,42.8014,5.9826,13.2969,4.59891,2453.649,38.4862
2023-09-24T02:18:49,2420,42.8014,5.9826,13.2971,4.59891,2453.627,38.4861
2023-09-24T02:21:49,2420,42.8014,5.9826,13.2971,4.59893,2453.649,38.4862
2023-09-24T02:24:49,2420,42.8014,5.9826,13.2968,4.59893,2453.635,38.4866
2023-09-24T02:27:49,2420,42.8014,5.9826,13.2972,4.59896,2453.649,38.4865
2023-09-24T02:30:49,2420,42.8014,5.9826,13.2973,4.59890,2453.612,38.4858
2023-09-24T02:33:49,2420,42.8014,5.9826,13.2970,4.59889,2453.627,38.4860
2023-09-24T02:36:49,2420,42.8014,5.9826,13.2973,4.59889,2453.627,38.4857
2023-09-24T02:39:49,2420,42.8014,5.9826,13.2973,4.59886,2453.649,38.4854
2023-09-24T02:42:49,2420,42.8014,5.9826,13.2971,4.59889,2453.657,38.4859
2023-09-24T02:45:49,2420,42.8014,5.9826,13.2969,4.59886,2453.627,38.4858
2023-09-24T02:48:49,2420,42.8014,5.9826,13.2975,4.59892,2453.635,38.4858
2023-09-24T02:51:49,2420,42.8014,5.9826,13.2970,4.59883,2453.649,38.4854
2023-09-24T02:54:49,2420,42.8014,5.9826,13.2968,4.59888,2453.627,38.4860
2023-09-24T02:57:49,2420,42.8014,5.9826,13.2972,4.59888,2453.657,38.4857
2023-09-24T03:00:49,2420,42.8014,5.9826,13.2968,4.59882,2453.635,38.4856
2023-09-24T03:03:49,2420,42.8014,5.9826,13.2970,4.59897,2453.649,38.4867
2023-09-24T03:06:49,2420,42.8014,5.9826,13.2973,4.59891,2453.612,38.4858
2023-09-24T03:09:49,2420,42.8014,5.9826,13.2969,4.59887,2453.649,38.4859
2023-09-24T03:12:49,2420,42.8014,5.9826,13.2970,4.59890,2453.627,38.4860
2023-09-24T03:15:49,2420,42.8014,5.9826,13.2968,4.59891,2453.604,38.4863
2023-09-24T03:18:49,2420,42.8014,5.9826,13.2968,4.59891,2453.627,38.4863
2023-09-24T03:21:49,2420,42.8014,5.9826,13.2970,4.59890,2453.627,38.4860
2023-09-24T03:24:49,2420,42.8014,5.9826,13.2970,4.59891,2453.627,38.4861
2023-09-24T03:27:49,2420,42.8014,5.9826,13.2972,4.59891,2453.604,38.4860
2023-09-24T03:30:49,2420,42.8014,5.9826,13.2969,4.59896,2453.649,38.4867
2023-09-24T03:33:49,2420,42.8014,5.9826,13.2973,4.59900,2453.604,38.4867
2023-09-24T03:36:49,2420,42.8014,5.9826,13.2970,4.59887,2453.612,38.4858
2023-09-24T03:39:49,2420,42.8014,5.9826,13.2970,4.59891,2453.627,38.4862
2023-09-24T03:42:49,2420,42.8014,5.9826,13.2968,4.59897,2453.635,38.4869
2023-09-24T03:45:49,2420,42.8014,5.9826,13.2970,4.59894,2453.627,38.4865
2023-09-24T03:48:49,2420,42.8014,5.9826,13.2968,4.59900,2453.641,38.4873
2023-09-24T03:51:49,2420,42.8014,5.9826,13.2971,4.59902,2453.649,38.4871
2023-09-24T03:54:49,2420,42.8014,5.9826,13.2973,4.59896,2453.627,38.4864
2023-09-24T03:57:49,2420,42.8014,5.9826,13.2970,4.59902,2453.649,38.4872
2023-09-24T04:00:49,2420,42.8014,5.9826,13.2970,4.59897,2453.590,38.4868
2023-09-24T04:03:49,2420,42.8014,5.9826,13.2968,4.59892,2453.604,38.4865
2023-09-24T04:06:49,2420,42.8014,5.9826,13.2967,4.59900,2453.649,38.4873
2023-09-24T04:09:49,2420,42.8014,5.9826,13.2968,4.59894,2453.590,38.4867
2023-09-24T04:12:49,2420,42.8014,5.9826,13.2974,4.59892,2453.604,38.4859
2023-09-24T04:15:49,2420,42.8014,5.9826,13.2969,4.59909,2453.590,38.4880
2023-09-24T04:18:49,2420,42.8014,5.9826,13.2968,4.59903,2453.649,38.4875
2023-09-24T04:21:49,2420,42.8014,5.9826,13.2968,4.59892,2453.649,38.4864
2023-09-24T04:24:49,2420,42.8014,5.9826,13.2968,4.59897,2453.604,38.4870
2023-09-24T04:27:50,2420,42.8014,5.9826,13.2975,4.59892,2453.627,38.4858
2023-09-24T04:30:50,2420,42.8014,5.9826,13.2972,4.59897,2453.649,38.4865
2023-09-24T04:33:49,2420,42.8014,5.9826,13.2968,4.59895,2453.649,38.4868
2023-09-24T04:36:49,2420,42.8014,5.9826,13.2970,4.59891,2453.604,38.4862
2023-09-24T04:39:49,2420,42.8014,5.9826,13.2972,4.59895,2453.604,38.4864
2023-09-24T04:42:49,2420,42.8014,5.9826,13.2973,4.59892,2453.627,38.4860
2023-09-24T04:45:49,2420,42.8014,5.9826,13.2971,4.59888,2453.641,38.4858
2023-09-24T04:48:49,2420,42.8014,5.9826,13.2970,4.59894,2453.612,38.4865
2023-09-24T04:51:49,2420,42.8014,5.9826,13.2970,4.59886,2453.649,38.4858
2023-09-24T04:54:49,2420,42.8014,5.9826,13.2970,4.59889,2453.627,38.4859
2023-09-24T04:57:49,2420,42.8014,5.9826,13.2970,4.59886,2453.604,38.4858
2023-09-24T05:00:49,2420,42.8014,5.9826,13.2968,4.59885,2453.627,38.4858
2023-09-24T05:03:49,2420,42.8014,5.9826,13.2969,4.59889,2453.604,38.4861
2023-09-24T05:06:49,2420,42.8014,5.9826,13.2971,4.59876,2453.627,38.4846
2023-09-24T05:09:49,2420,42.8014,5.9826,13.2970,4.59887,2453.604,38.4858
2023-09-24T05:12:49,2420,42.8014,5.9826,13.2970,4.59888,2453.641,38.4859
2023-09-24T05:15:49,2420,42.8014,5.9826,13.2970,4.59887,2453.627,38.4858
2023-09-24T05:18:49,2420,42.8014,5.9826,13.2973,4.59879,2453.649,38.4847
2023-09-24T05:21:49,2420,42.8014,5.9826,13.2967,4.59886,2453.627,38.4860
2023-09-24T05:24:49,2420,42.8014,5.9826,13.2972,4.59891,2453.627,38.4860
2023-09-24T05:27:49,2420,42.8014,5.9826,13.2967,4.59888,2453.612,38.4862
2023-09-24T05:30:49,2420,42.8014,5.9826,13.2966,4.59887,2453.627,38.4862
2023-09-24T05:33:49,2420,42.8014,5.9826,13.2968,4.59892,2453.627,38.4865
2023-09-24T05:36:49,2420,42.8014,5.9826,13.2970,4.59881,2453.604,38.4852
2023-09-24T05:39:49,2420,42.8014,5.9826,13.2972,4.59882,2453.604,38.4851
2023-09-24T05:42:49,2420,42.8014,5.9826,13.2968,4.59889,2453.635,38.4862
2023-09-24T05:45:49,2420,42.8014,5.9826,13.2968,4.59890,2453.612,38.4863
2023-09-24T05:48:49,2420,42.8014,5.9826,13.2970,4.59892,2453.612,38.4863
2023-09-24T05:51:49,2420,42.8014,5.9826,13.2969,4.59880,2453.604,38.4853
2023-09-24T05:54:50,2420,42.8014,5.9826,13.2971,4.59886,2453.627,38.4856
2023-09-24T05:57:49,2420,42.8014,5.9826,13.2971,4.59894,2453.627,38.4863
2023-09-24T06:00:49,2420,42.8014,5.9826,13.2967,4.59886,2453.627,38.4860
2023-09-24T06:03:49,2420,42.8014,5.9826,13.2970,4.59882,2453.641,38.4853
2023-09-24T06:06:49,2420,42.8014,5.9826,13.2967,4.59876,2453.627,38.4851
2023-09-24T06:09:49,2420,42.8014,5.9826,13.2967,4.59877,2453.590,38.4852
2023-09-24T06:12:49,2420,42.8014,5.9826,13.2966,4.59882,2453.567,38.4858
2023-09-24T06:15:49,2420,42.8014,5.9826,13.2968,4.59882,2453.627,38.4855
2023-09-24T06:18:49,2420,42.8014,5.9826,13.2966,4.59880,2453.627,38.4856
2023-09-24T06:21:49,2420,42.8014,5.9826,13.2969,4.59882,2453.627,38.4854
2023-09-24T06:24:49,2420,42.8014,5.9826,13.2973,4.59880,2453.582,38.4849
2023-09-24T06:27:49,2420,42.8014,5.9826,13.2973,4.59887,2453.590,38.4855
2023-09-24T06:30:49,2420,42.8014,5.9826,13.2969,4.59890,2453.627,38.4862
2023-09-24T06:33:49,2420,42.8014,5.9826,13.2968,4.59906,2453.604,38.4877
2023-09-24T06:36:49,2420,42.8014,5.9826,13.2969,4.59881,2453.604,38.4853
2023-09-24T06:39:49,2420,42.8014,5.9826,13.2969,4.59877,2453.612,38.4849
2023-09-24T06:42:49,2420,42.8014,5.9826,13.2968,4.59880,2453.604,38.4853
2023-09-24T06:45:49,2420,42.8014,5.9826,13.2968,4.59880,2453.582,38.4854
2023-09-24T06:48:49,2420,42.8014,5.9826,13.2968,4.59881,2453.582,38.4855
2023-09-24T06:51:49,2420,42.8014,5.9826,13.2966,4.59884,2453.604,38.4859
2023-09-24T06:54:49,2420,42.8014,5.9826,13.2965,4.59877,2453.604,38.4854
2023-09-24T06:57:49,2420,42.8014,5.9826,13.2970,4.59885,2453.582,38.4856
2023-09-24T07:00:49,2420,42.8014,5.9826,13.2966,4.59880,2453.604,38.4855
2023-09-24T07:03:49,2420,42.8014,5.9826,13.2970,4.59874,2453.604,38.4845
2023-09-24T07:06:49,2420,42.8014,5.9826,13.2969,4.59875,2453.627,38.4848
2023-09-24T07:09:49,2420,42.8014,5.9826,13.2971,4.59877,2453.604,38.4848
2023-09-24T07:12:49,2420,42.8014,5.9826,13.2970,4.59888,2453.582,38.4859
2023-09-24T07:15:49,2420,42.8014,5.9826,13.2968,4.59882,2453.604,38.4855
2023-09-24T07:18:49,2420,42.8014,5.9826,13.2972,4.59886,2453.612,38.4856
2023-09-24T07:21:49,2420,42.8014,5.9826,13.2970,4.59885,2453.604,38.4856
2023-09-24T07:24:49,2420,42.8014,5.9826,13.2969,4.59881,2453.567,38.4854
2023-09-24T07:27:49,2420,42.8014,5.9826,13.2966,4.59883,2453.567,38.4858
2023-09-24T07:30:49,2420,42.8014,5.9826,13.2968,4.59880,2453.590,38.4853
2023-09-24T07:33:49,2420,42.8014,5.9826,13.2966,4.59877,2453.604,38.4853
2023-09-24T07:36:49,2420,42.8014,5.9826,13.2970,4.59886,2453.604,38.4857
2023-09-24T07:39:49,2420,42.8014,5.9826,13.2968,4.59881,2453.567,38.4855
2023-09-24T07:42:49,2420,42.8014,5.9826,13.2968,4.59887,2453.604,38.4860
2023-09-24T07:45:49,2420,42.8014,5.9826,13.2966,4.59880,2453.604,38.4855
2023-09-24T07:48:49,2420,42.8014,5.9826,13.2966,4.59877,2453.604,38.4852
2023-09-24T07:51:49,2420,42.8014,5.9826,13.2968,4.59880,2453.582,38.4853
2023-09-24T07:54:49,2420,42.8014,5.9826,13.2968,4.59878,2453.604,38.4852
2023-09-24T07:57:49,2420,42.8014,5.9826,13.2968,4.59878,2453.582,38.4851
2023-09-24T08:00:49,2420,42.8014,5.9826,13.2969,4.59878,2453.574,38.4851
2023-09-24T08:03:49,2420,42.8014,5.9826,13.2968,4.59875,2453.559,38.4849
2023-09-24T08:06:49,2420,42.8014,5.9826,13.2972,4.59880,2453.582,38.4850
2023-09-24T08:09:49,2420,42.8014,5.9826,13.2969,4.59881,2453.582,38.4853
2023-09-24T08:12:49,2420,42.8014,5.9826,13.2970,4.59886,2453.604,38.4858
2023-09-24T08:15:49,2420,42.8014,5.9826,13.2968,4.59879,2453.604,38.4853
2023-09-24T08:18:49,2420,42.8014,5.9826,13.2970,4.59884,2453.590,38.4855
2023-09-24T08:21:49,2420,42.8014,5.9826,13.2967,4.59880,2453.582,38.4854
2023-09-24T08:24:49,2420,42.8014,5.9826,13.2970,4.59880,2453.582,38.4852
2023-09-24T08:27:49,2420,42.8014,5.9826,13.2967,4.59881,2453.619,38.4855
2023-09-24T08:30:49,2420,42.8014,5.9826,13.2966,4.59879,2453.582,38.4855
2023-09-24T08:33:49,2420,42.8014,5.9826,13.2970,4.59886,2453.582,38.4856
2023-09-24T08:36:49,2420,42.8014,5.9826,13.2967,4.59880,2453.604,38.4855
2023-09-24T08:39:49,2420,42.8014,5.9826,13.2968,4.59880,2453.619,38.4853
2023-09-24T08:42:49,2420,42.8014,5.9826,13.2970,4.59880,2453.604,38.4852
2023-09-24T08:45:49,2420,42.8014,5.9826,13.2971,4.59884,2453.604,38.4854
2023-09-24T08:48:49,2420,42.8014,5.9826,13.2972,4.59878,2453.641,38.4848
2023-09-24T08:51:49,2420,42.8014,5.9826,13.2968,4.59877,2453.559,38.4851
2023-09-24T08:54:49,2420,42.8014,5.9826,13.2970,4.59878,2453.582,38.4850
2023-09-24T08:57:49,2420,42.8014,5.9826,13.2970,4.59880,2453.582,38.4852
2023-09-24T09:00:49,2420,42.8014,5.9826,13.2972,4.59879,2453.604,38.4849
2023-09-24T09:03:49,2420,42.8014,5.9826,13.2968,4.59881,2453.604,38.4854
2023-09-24T09:06:49,2420,42.8014,5.9826,13.2975,4.59886,2453.582,38.4853
2023-09-24T09:09:49,2420,42.8014,5.9826,13.2972,4.59883,2453.582,38.4852
2023-09-24T09:12:49,2420,42.8014,5.9826,13.2973,4.59884,2453.627,38.4852
2023-09-24T09:15:49,2420,42.8014,5.9826,13.2970,4.59884,2453.604,38.4856
2023-09-24T09:18:49,2420,42.8014,5.9826,13.2970,4.59877,2453.590,38.4849
2023-09-24T09:21:49,2420,42.8014,5.9826,13.2966,4.59879,2453.627,38.4854
2023-09-24T09:24:49,2420,42.8014,5.9826,13.2970,4.59878,2453.604,38.4850
2023-09-24T09:27:50,2420,42.8014,5.9826,13.2968,4.59878,2453.627,38.4851
2023-09-24T09:30:49,2420,42.8014,5.9826,13.2969,4.59880,2453.627,38.4852
2023-09-24T09:33:49,2420,42.8014,5.9826,13.2970,4.59875,2453.590,38.4846
2023-09-24T09:36:49,2420,42.8014,5.9826,13.2970,4.59882,2453.604,38.4853
2023-09-24T09:39:49,2420,42.8014,5.9826,13.2969,4.59882,2453.604,38.4854
2023-09-24T09:42:49,2420,42.8014,5.9826,13.2969,4.59878,2453.612,38.4851
2023-09-24T09:45:49,2420,42.8014,5.9826,13.2973,4.59873,2453.619,38.4841
2023-09-24T09:48:49,2420,42.8014,5.9826,13.2970,4.59878,2453.590,38.4850
2023-09-24T09:51:49,2420,42.8014,5.9826,13.2969,4.59880,2453.590,38.4852
2023-09-24T09:54:49,2420,42.8014,5.9826,13.2970,4.59878,2453.604,38.4849
2023-09-24T09:57:49,2420,42.8014,5.9826,13.2969,4.59881,2453.604,38.4853
2023-09-24T10:00:49,2420,42.8014,5.9826,13.2970,4.59877,2453.612,38.4849
2023-09-24T10:03:49,2420,42.8014,5.9826,13.2971,4.59881,2453.635,38.4851
2023-09-24T10:06:49,2420,42.8014,5.9826,13.2970,4.59878,2453.627,38.4850
2023-09-24T10:09:49,2420,42.8014,5.9826,13.2970,4.59877,2453.582,38.4848
2023-09-24T10:12:49,2420,42.8014,5.9826,13.2967,4.59882,2453.582,38.4856
2023-09-24T10:15:49,2420,42.8014,5.9826,13.2967,4.59878,2453.627,38.4853
2023-09-24T10:18:49,2420,42.8014,5.9826,13.2970,4.59877,2453.627,38.4849
2023-09-24T10:21:49,2420,42.8014,5.9826,13.2974,4.59886,2453.604,38.4853
2023-09-24T10:24:49,2420,42.8014,5.9826,13.2971,4.59883,2453.627,38.4853
2023-09-24T10:27:49,2420,42.8014,5.9826,13.2972,4.59878,2453.612,38.4848
2023-09-24T10:30:50,2420,42.8014,5.9826,13.2968,4.59879,2453.627,38.4852
2023-09-24T10:33:49,2420,42.8014,5.9826,13.2970,4.59875,2453.627,38.4846
2023-09-24T10:36:49,2420,42.8014,5.9826,13.2966,4.59882,2453.627,38.4857
2023-09-24T10:39:49,2420,42.8014,5.9826,13.2966,4.59877,2453.627,38.4852
2023-09-24T10:42:49,2420,42.8014,5.9826,13.2972,4.59880,2453.627,38.4849
2023-09-24T10:45:49,2420,42.8014,5.9826,13.2968,4.59883,2453.649,38.4856
2023-09-24T10:48:49,2420,42.8014,5.9826,13.2971,4.59877,2453.649,38.4847
2023-09-24T10:51:49,2420,42.8014,5.9826,13.2971,4.59880,2453.627,38.4850
2023-09-24T10:54:49,2420,42.8014,5.9826,13.2969,4.59877,2453.627,38.4849
2023-09-24T10:57:49,2420,42.8014,5.9826,13.2971,4.59881,2453.627,38.4851
2023-09-24T11:00:49,2420,42.8014,5.9826,13.2970,4.59877,2453.627,38.4849
2023-09-24T11:03:49,2420,42.8014,5.9826,13.2972,4.59882,2453.649,38.4851
2023-09-24T11:06:49,2420,42.8014,5.9826,13.2975,4.59877,2453.627,38.4844
2023-09-24T11:09:49,2420,42.8014,5.9826,13.2971,4.59877,2453.627,38.4848
2023-09-24T11:12:49,2420,42.8014,5.9826,13.2970,4.59875,2453.604,38.4847
2023-09-24T11:15:49,2420,42.8014,5.9826,13.2969,4.59880,2453.649,38.4852
2023-09-24T11:18:49,2420,42.8014,5.9826,13.2973,4.59882,2453.649,38.4850
2023-09-24T11:21:49,2420,42.8014,5.9826,13.2967,4.59876,2453.627,38.4851
2023-09-24T11:24:49,2420,42.8014,5.9826,13.2973,4.59875,2453.649,38.4843
2023-09-24T11:27:49,2420,42.8014,5.9826,13.2971,4.59877,2453.649,38.4848
2023-09-24T11:30:49,2420,42.8014,5.9826,13.2972,4.59877,2453.649,38.4846
2023-09-24T11:33:49,2420,42.8014,5.9826,13.2970,4.59880,2453.649,38.4851
2023-09-24T11:36:49,2420,42.8014,5.9826,13.2970,4.59877,2453.695,38.4848
2023-09-24T11:39:49,2420,42.8014,5.9826,13.2970,4.59874,2453.649,38.4846
2023-09-24T11:42:49,2420,42.8014,5.9826,13.2968,4.59875,2453.635,38.4848
2023-09-24T11:45:49,2420,42.8014,5.9826,13.2972,4.59875,2453.687,38.4844
2023-09-24T11:48:49,2420,42.8014,5.9826,13.2967,4.59887,2453.664,38.4861
2023-09-24T11:51:49,2420,42.8014,5.9826,13.2968,4.59877,2453.672,38.4850
2023-09-24T11:54:49,2420,42.8014,5.9826,13.2968,4.59880,2453.672,38.4852
2023-09-24T11:57:49,2420,42.8014,5.9826,13.2968,4.59880,2453.649,38.4853
2023-09-24T12:00:49,2420,42.8014,5.9826,13.2965,4.59883,2453.672,38.4860
2023-09-24T12:03:49,2420,42.8014,5.9826,13.2970,4.59880,2453.635,38.4851
2023-09-24T12:06:49,2420,42.8014,5.9826,13.2970,4.59877,2453.687,38.4848
2023-09-24T12:09:49,2420,42.8014,5.9826,13.2970,4.59877,2453.657,38.4848
2023-09-24T12:12:49,2420,42.8014,5.9826,13.2970,4.59877,2453.709,38.4848
2023-09-24T12:15:49,2420,42.8014,5.9826,13.2973,4.59873,2453.695,38.4842
2023-09-24T12:18:49,2420,42.8014,5.9826,13.2970,4.59876,2453.649,38.4848
2023-09-24T12:21:49,2420,42.8014,5.9826,13.2969,4.59879,2453.649,38.4851
2023-09-24T12:24:49,2420,42.8014,5.9826,13.2970,4.59875,2453.709,38.4846
2023-09-24T12:27:50,2420,42.8014,5.9826,13.2969,4.59877,2453.695,38.4850
2023-09-24T12:30:49,2420,42.8014,5.9826,13.2969,4.59875,2453.695,38.4847
2023-09-24T12:33:49,2420,42.8014,5.9826,13.2973,4.59875,2453.672,38.4843
2023-09-24T12:36:49,2420,42.8014,5.9826,13.2969,4.59880,2453.695,38.4852
2023-09-24T12:39:49,2420,42.8014,5.9826,13.2970,4.59877,2453.680,38.4848
2023-09-24T12:42:49,2420,42.8014,5.9826,13.2970,4.59878,2453.695,38.4850
2023-09-24T12:45:49,2420,42.8014,5.9826,13.2970,4.59878,2453.695,38.4850
2023-09-24T12:48:49,2420,42.8014,5.9826,13.2969,4.59877,2453.695,38.4850
2023-09-24T12:51:49,2420,42.8014,5.9826,13.2970,4.59880,2453.695,38.4851
2023-09-24T12:54:49,2420,42.8014,5.9826,13.2968,4.59877,2453.732,38.4850
2023-09-24T12:57:50,2420,42.8014,5.9826,13.2969,4.59881,2453.672,38.4853
2023-09-24T13:00:49,2420,42.8014,5.9826,13.2966,4.59887,2453.717,38.4862
2023-09-24T13:03:49,2420,42.8014,5.9826,13.2970,4.59881,2453.695,38.4852
2023-09-24T13:06:49,2420,42.8014,5.9826,13.2972,4.59884,2453.717,38.4853
2023-09-24T13:09:49,2420,42.8014,5.9826,13.2970,4.59879,2453.695,38.4850
2023-09-24T13:12:49,2420,42.8014,5.9826,13.2968,4.59877,2453.672,38.4851
2023-09-24T13:15:49,2420,42.8014,5.9826,13.2971,4.59877,2453.695,38.4848
2023-09-24T13:18:49,2420,42.8014,5.9826,13.2970,4.59881,2453.695,38.4852
2023-09-24T13:21:49,2420,42.8014,5.9826,13.2968,4.59881,2453.717,38.4854
2023-09-24T13:24:49,2420,42.8014,5.9826,13.2968,4.59878,2453.717,38.4852
2023-09-24T13:27:49,2420,42.8014,5.9826,13.2970,4.59880,2453.740,38.4852
2023-09-24T13:30:49,2420,42.8014,5.9826,13.2969,4.59882,2453.717,38.4854
2023-09-24T13:33:49,2420,42.8014,5.9826,13.2972,4.59886,2453.717,38.4855
2023-09-24T13:36:49,2420,42.8014,5.9826,13.2968,4.59880,2453.695,38.4852
2023-09-24T13:39:49,2420,42.8014,5.9826,13.2970,4.59885,2453.717,38.4856
2023-09-24T13:42:49,2420,42.8014,5.9826,13.2968,4.59877,2453.717,38.4850
2023-09-24T13:45:49,2420,42.8014,5.9826,13.2971,4.59878,2453.725,38.4848
2023-09-24T13:48:49,2420,42.8014,5.9826,13.2970,4.59877,2453.717,38.4848
2023-09-24T13:51:49,2420,42.8014,5.9826,13.2968,4.59888,2453.740,38.4860
2023-09-24T13:54:49,2420,42.8014,5.9826,13.2969,4.59881,2453.717,38.4853
2023-09-24T13:57:49,2420,42.8014,5.9826,13.2970,4.59879,2453.717,38.4850
2023-09-24T14:00:50,2420,42.8014,5.9826,13.2970,4.59882,2453.717,38.4853
2023-09-24T14:03:49,2420,42.8014,5.9826,13.2973,4.59886,2453.725,38.4854
2023-09-24T14:06:49,2420,42.8014,5.9826,13.2973,4.59884,2453.740,38.4852
2023-09-24T14:09:49,2420,42.8014,5.9826,13.2973,4.59880,2453.717,38.4848
2023-09-24T14:12:49,2420,42.8014,5.9826,13.2968,4.59879,2453.740,38.4851
2023-09-24T14:15:49,2420,42.8014,5.9826,13.2971,4.59880,2453.762,38.4849
2023-09-24T14:18:49,2420,42.8014,5.9826,13.2970,4.59886,2453.717,38.4856
2023-09-24T14:21:49,2420,42.8014,5.9826,13.2970,4.59885,2453.717,38.4855
2023-09-24T14:24:49,2420,42.8014,5.9826,13.2966,4.59880,2453.740,38.4855
2023-09-24T14:27:49,2420,42.8014,5.9826,13.2970,4.59886,2453.717,38.4857
2023-09-24T14:30:49,2420,42.8014,5.9826,13.2970,4.59884,2453.717,38.4855
2023-09-24T14:33:49,2420,42.8014,5.9826,13.2970,4.59898,2453.717,38.4868
2023-09-24T14:36:49,2420,42.8014,5.9826,13.2970,4.59890,2453.740,38.4860
2023-09-24T14:39:49,2420,42.8014,5.9826,13.2969,4.59894,2453.754,38.4865
2023-09-24T14:42:49,2420,42.8014,5.9826,13.2973,4.59894,2453.740,38.4862
2023-09-24T14:45:49,2420,42.8014,5.9826,13.2970,4.59897,2453.702,38.4867
2023-09-24T14:48:49,2420,42.8014,5.9826,13.2972,4.59894,2453.740,38.4862
2023-09-24T14:51:49,2420,42.8014,5.9826,13.2967,4.59894,2453.740,38.4867
2023-09-24T14:54:49,2420,42.8014,5.9826,13.2970,4.59892,2453.740,38.4862
2023-09-24T14:57:49,2420,42.8014,5.9826,13.2973,4.59891,2453.725,38.4858
2023-09-24T15:00:49,2420,42.8014,5.9826,13.2970,4.59899,2453.740,38.4869
2023-09-24T15:03:49,2420,42.8014,5.9826,13.2970,4.59896,2453.717,38.4866
2023-09-24T15:06:49,2420,42.8014,5.9826,13.2966,4.59889,2453.740,38.4863
2023-09-24T15:09:49,2420,42.8014,5.9826,13.2969,4.59892,2453.754,38.4863
2023-09-24T15:12:49,2420,42.8014,5.9826,13.2969,4.59894,2453.725,38.4865
2023-09-24T15:15:49,2420,42.8014,5.9826,13.2970,4.59897,2453.725,38.4866
2023-09-24T15:18:49,2420,42.8014,5.9826,13.2970,4.59894,2453.717,38.4864
2023-09-24T15:21:49,2420,42.8014,5.9826,13.2968,4.59894,2453.740,38.4866
2023-09-24T15:24:49,2420,42.8014,5.9826,13.2971,4.59887,2453.740,38.4856
2023-09-24T15:27:49,2420,42.8014,5.9826,13.2970,4.59900,2453.762,38.4870
2023-09-24T15:30:49,2420,42.8014,5.9826,13.2970,4.59889,2453.740,38.4859
2023-09-24T15:33:49,2420,42.8014,5.9826,13.2965,4.59897,2453.725,38.4872
2023-09-24T15:36:49,2420,42.8014,5.9826,13.2971,4.59891,2453.777,38.4860
2023-09-24T15:39:49,2420,42.8014,5.9826,13.2968,4.59889,2453.717,38.4861
2023-09-24T15:42:49,2420,42.8014,5.9826,13.2970,4.59890,2453.717,38.4860
2023-09-24T15:45:49,2420,42.8014,5.9826,13.2970,4.59906,2453.717,38.4876
2023-09-24T15:48:49,2420,42.8014,5.9826,13.2968,4.59890,2453.762,38.4862
2023-09-24T15:51:49,2420,42.8014,5.9826,13.2968,4.59903,2453.725,38.4874
2023-09-24T15:54:49,2420,42.8014,5.9826,13.2969,4.59894,2453.740,38.4866
2023-09-24T15:57:49,2420,42.8014,5.9826,13.2970,4.59898,2453.740,38.4868
2023-09-24T16:00:49,2420,42.8014,5.9826,13.2969,4.59908,2453.717,38.4878
2023-09-24T16:03:49,2420,42.8014,5.9826,13.2978,4.59900,2453.732,38.4862